CAPE
840 888 630 737 948 805 356 207 167 173 189 237 509 1276 1043 978 839 888 844 357 223 145 72 41 79 79 81 94 178 162 99 69 53 45 47 41 16 0
734 680 860 737 846 995 921 752 366 261 162 241 268 741 977 570 685 715 1007 491 293 158 93 22 30 71 75 85 89 160 196 135 67 63 48 61 55 37
551 739 617 690 910 764 930 937 804 571 361 257 320 283 479 1160 622 583 641 813 528 239 134 72 18 11 57 92 77 84 91 145 176 109 44 22 18 20
11 47 441 579 504 817 897 759 500 765 696 471 440 613 511 494 858 989 551 433 701 436 228 113 51 8 11 37 52 39 61 87 103 112 105 37 57 11
120 28 26 153 204 541 648 794 693 359 309 349 558 890 1054 986 855 1001 1004 1015 395 343 346 285 187 139 26 0 7 10 29 47 62 90 105 74 56 25
181 154 158 60 26 13 308 199 160 114 79 178 193 508 673 816 538 393 712 547 612 253 198 226 259 294 288 122 3 0 8 35 43 41 23 35 18 6
0 47 350 101 244 222 246 25 82 0 7 25 0 120 40 153 194 198 198 194 227 253 150 133 185 232 308 329 268 166 77 14 34 15 7 10 4 5
0 0 0 45 155 192 197 182 170 124 105 63 0 51 0 0 21 31 121 138 46 132 16 47 77 79 118 199 287 323 259 206 175 44 3 0 0 4
0 0 0 0 0 5 22 162 145 211 164 124 62 23 4 10 65 38 55 0 12 6 5 0 0 25 73 82 178 231 267 231 242 262 172 3 0 0
0 0 0 0 0 0 0 0 156 212 259 136 35 53 29 52 101 30 1 36 41 24 25 9 0 0 14 39 99 147 206 295 324 378 300 178 13 0
0 0 0 0 0 0 0 0 0 1 64 38 28 84 71 96 118 126 46 59 18 9 11 14 1 5 18 19 68 112 136 263 367 309 248 198 65 18
0 0 0 0 0 0 0 0 0 0 0 2 164 71 102 72 131 142 66 29 22 6 8 11 10 20 1 0 0 43 104 104 234 269 148 162 205 170
0 0 0 0 0 0 0 0 0 0 0 0 0 10 115 84 58 175 253 127 33 17 16 24 2 2 0 1 0 3 51 41 77 148 150 163 168 166
0 0 0 0 0 0 0 0 0 1 2 2 1 2 5 10 41 93 56 108 47 18 87 7 7 7 4 2 3 1 7 9 0 0 7 49 168 151
0 0 0 0 0 0 0 0 0 0 0 0 10 1 3 0 0 7 38 46 2 0 30 4 5 4 13 1 11 1 0 0 0 0 0 0 12 102
0 0 0 0 0 0 0 0 0 0 0 0 0 0 0 0 1 3 29 56 26 0 0 0 3 32 51 3 6 0 2 2 0 0 0 0 0 29
0 0 0 0 0 0 0 0 0 0 0 0 0 0 0 0 0 2 0 23 58 6 1 0 0 4 13 28 20 7 9 5 0 0 0 0 1 7
0 0 0 0 0 0 0 0 0 0 0 0 0 0 0 0 1 1 1 0 30 16 37 22 25 16 36 20 5 5 2 0 0 2 1 0 0 3
0 0 0 0 0 0 0 0 0 0 0 0 0 0 0 0 3 4 4 4 20 50 58 84 68 21 40 24 4 4 0 1 1 0 0 0 0 0
0 0 0 0 0 0 0 0 0 0 0 0 0 0 0 0 0 0 6 10 9 13 2 1 42 29 14 1 20 7 4 6 0 1 0 0 1 0
0 0 0 0 0 0 0 0 0 0 0 0 0 0 0 0 0 0 0 0 13 13 4 0 10 23 24 4 8 10 26 7 7 7 5 1 2 2
0 0 0 0 0 0 0 0 0 0 0 0 0 0 0 0 0 0 0 0 0 0 0 0 4 2 19 25 0 0 23 0 9 5 6 2 5 0
0 0 0 0 0 0 0 0 0 0 0 0 0 0 0 0 0 0 0 0 0 0 0 0 0 0 0 0 0 0 0 0 1 4 5 2 4 0
CIN
-1 -0 -1 -0 -0 0 0 -1 -2 -19 -15 -36 0 -4 -6 -2 -20 -35 -75 -165 -200 -238 -309 -209 -195 -192 -204 -197 -169 -167 -151 -126 -130 -128 -130 -100 -94 0
-0 -5 -4 -0 -0 -0 -0 0 0 0 -2 -15 -7 -0 -7 -15 -43 -49 -26 -118 -199 -231 -281 -314 -209 -193 -196 -197 -200 -180 -148 -150 -134 -119 -155 -118 -102 -82
-0 -0 -14 -7 0 -0 -1 0 0 0 -2 -73 0 -14 -7 -4 -18 -52 -57 -34 -117 -203 -229 -278 -346 -242 -200 -192 -225 -182 -181 -175 -134 -135 -155 -185 -165 -125
-26 -1 0 -2 -7 0 -0 -3 -15 -1 0 0 0 0 -1 -5 -6 -12 -23 -45 -38 -122 -194 -234 -303 -346 -243 -208 -250 -212 -202 -182 -238 -196 -165 -210 -168 -159
0 0 -5 -6 -3 -0 -0 -0 0 -1 -10 -4 -0 -1 -0 -0 -1 -3 -10 -1 -31 -76 -111 -149 -136 -45 -191 0 -264 -255 -246 -252 -213 -237 -200 -196 -206 -196
-0 -8 -1 -5 -3 -2 -0 -4 -4 -0 -46 -1 -0 -4 -3 -2 -8 -8 -8 -5 -1 -43 -75 -72 -72 -68 -44 -62 -39 0 -254 -257 -240 -232 -293 -237 -246 -53
0 -5 0 -11 0 0 -0 -18 -13 0 -53 -0 0 -2 -2 0 -2 -2 -1 -23 -27 -13 -66 -122 -84 -67 -66 -55 -70 -97 -102 -285 -266 -279 -261 -286 -70 0
0 0 0 -17 -0 0 0 0 0 0 0 -2 -1 -16 0 0 -64 -2 -16 -15 -30 -47 -83 -76 -60 -56 -71 -65 -92 -82 -93 -87 -103 -138 -340 0 0 0
0 0 0 0 0 -46 -39 0 -1 0 0 0 -0 -1 -7 -89 -59 -35 -76 -0 -20 -86 -1 0 0 -65 -40 -69 -86 -114 -115 -128 -95 -78 -80 -53 0 0
0 0 0 0 0 0 0 0 0 0 0 0 -8 -2 -11 -19 -18 -62 -9 -25 -14 -35 -40 0 0 0 -68 -55 -112 -99 -130 -123 -106 -83 -84 -92 -147 0
0 0 0 0 0 0 0 0 0 -2 -1 -3 -4 -0 0 0 -1 -0 -19 -5 -6 -1 -0 0 -0 -50 -73 -66 -208 -88 -137 -109 -102 -119 -112 -111 -160 -180
0 0 0 0 0 0 0 0 0 0 0 -3 0 -0 -0 -0 -0 -1 -1 0 0 0 -0 0 -198 -153 0 0 0 -153 -116 -157 -88 -84 -143 -155 -138 -124
0 0 0 0 0 0 0 0 0 0 0 0 0 -3 0 -1 -2 -0 0 0 0 -0 0 -5 0 0 0 -0 0 -112 -87 -92 -146 -109 -120 -91 -104 -156
0 0 0 0 0 0 0 0 0 0 -1 -1 -1 -1 -1 -1 -3 0 -0 -2 -1 0 -3 0 0 0 -0 0 -107 -25 -145 -88 0 -16 -61 -105 -63 -59
0 0 0 0 0 0 0 0 0 0 0 0 0 0 -1 0 -0 -5 -10 -2 0 0 -15 -3 0 0 -84 -0 -81 -7 0 0 0 -0 0 0 -115 -5
0 0 0 0 0 0 0 0 0 0 0 0 0 0 0 0 -0 -6 -7 -3 -5 0 0 0 -5 -52 -26 -0 0 0 0 0 0 0 0 0 0 -20
0 0 0 0 0 0 0 0 0 0 0 0 0 0 0 0 0 -2 0 -3 0 -0 0 0 0 0 -0 -16 -4 0 0 0 0 0 0 0 -1 0
0 0 0 0 0 0 0 0 0 0 0 0 0 0 0 0 0 0 -1 0 -3 -5 -0 0 0 -0 -1 -0 0 0 0 0 0 0 0 0 0 -2
0 0 0 0 0 0 0 0 0 0 0 0 0 0 0 0 -0 0 0 -1 -14 0 -1 0 -0 -14 0 -0 -0 0 0 0 0 0 0 0 0 0
0 0 0 0 0 0 0 0 0 0 0 0 0 0 0 0 -0 -0 -1 -0 -0 -4 -7 -0 -0 -9 -0 -0 -0 -0 0 0 -0 0 0 -0 0 0
0 0 0 0 0 0 0 0 0 0 0 0 0 0 0 0 0 0 0 0 -2 -1 -0 0 -6 -12 -12 -16 -4 -6 0 -1 -0 0 0 0 -0 -0
0 0 0 0 0 0 0 0 0 0 0 0 0 0 0 0 0 0 0 0 0 0 0 0 -17 -12 -4 -1 -1 0 -0 0 -0 0 -5 0 0 0
0 0 0 0 0 0 0 0 0 0 0 0 0 0 0 0 0 0 0 0 0 0 0 0 0 0 0 0 0 0 0 0 -3 -2 0 0 0 0
Wind_Speed
61 56 53 51 48 46 42 39 38 35 35 30 32 35 34 31 27 31 31 34 33 30 nan nan nan nan nan nan 31 32 nan nan nan nan nan nan nan nan
70 60 56 55 53 52 49 46 44 41 39 35 36 35 38 38 34 34 31 37 37 35 nan nan nan nan nan nan nan 33 33 30 nan nan nan nan nan nan
38 61 62 59 59 59 54 51 48 48 45 36 40 37 39 40 40 41 40 37 37 36 36 nan nan nan nan nan nan nan nan 34 31 29 nan nan nan nan
nan nan 59 66 64 57 60 57 60 54 52 42 43 45 44 42 43 44 43 45 42 42 37 35 nan nan nan nan nan nan nan nan 35 33 31 nan nan nan
83 nan nan 57 76 46 59 66 63 69 44 57 45 53 53 54 50 49 46 45 45 47 47 39 37 35 nan nan nan nan nan nan nan nan 35 nan nan nan
90 88 78 nan nan nan 42 75 71 74 nan 71 51 63 62 60 64 63 57 52 48 50 51 51 46 40 38 36 nan nan nan nan nan nan nan nan nan nan
nan nan 86 90 87 79 82 nan nan nan nan nan nan 36 nan 64 62 64 64 60 53 51 51 49 52 51 45 42 35 35 nan nan nan nan nan nan nan nan
nan nan nan nan 96 87 82 68 63 65 52 nan nan nan nan nan nan nan 65 61 nan 56 nan nan nan nan 46 48 43 39 40 37 32 nan nan nan nan nan
nan nan nan nan nan nan nan 82 80 73 61 60 nan nan nan nan nan nan nan nan nan nan nan nan nan nan nan nan 46 48 46 47 44 41 41 nan nan nan
nan nan nan nan nan nan nan nan 84 81 81 81 nan nan nan nan 52 nan nan nan nan nan nan nan nan nan nan nan nan 49 49 50 52 49 48 50 nan nan
nan nan nan nan nan nan nan nan nan nan nan nan nan nan nan nan 71 60 nan nan nan nan nan nan nan nan nan nan nan 53 52 53 52 53 54 56 nan nan
nan nan nan nan nan nan nan nan nan nan nan nan 81 nan 77 nan 69 70 nan nan nan nan nan nan nan nan nan nan nan nan 59 51 54 55 56 58 62 65
nan nan nan nan nan nan nan nan nan nan nan nan nan nan 82 nan nan 73 70 71 nan nan nan nan nan nan nan nan nan nan nan nan nan 68 62 65 68 70
nan nan nan nan nan nan nan nan nan nan nan nan nan nan nan nan nan nan nan 72 nan nan nan nan nan nan nan nan nan nan nan nan nan nan nan nan 61 67
nan nan nan nan nan nan nan nan nan nan nan nan nan nan nan nan nan nan nan nan nan nan nan nan nan nan nan nan nan nan nan nan nan nan nan nan nan 63
nan nan nan nan nan nan nan nan nan nan nan nan nan nan nan nan nan nan nan nan nan nan nan nan nan nan nan nan nan nan nan nan nan nan nan nan nan nan
nan nan nan nan nan nan nan nan nan nan nan nan nan nan nan nan nan nan nan nan nan nan nan nan nan nan nan nan nan nan nan nan nan nan nan nan nan nan
nan nan nan nan nan nan nan nan nan nan nan nan nan nan nan nan nan nan nan nan nan nan nan nan nan nan nan nan nan nan nan nan nan nan nan nan nan nan
nan nan nan nan nan nan nan nan nan nan nan nan nan nan nan nan nan nan nan nan nan nan nan nan nan nan nan nan nan nan nan nan nan nan nan nan nan nan
nan nan nan nan nan nan nan nan nan nan nan nan nan nan nan nan nan nan nan nan nan nan nan nan nan nan nan nan nan nan nan nan nan nan nan nan nan nan
nan nan nan nan nan nan nan nan nan nan nan nan nan nan nan nan nan nan nan nan nan nan nan nan nan nan nan nan nan nan nan nan nan nan nan nan nan nan
nan nan nan nan nan nan nan nan nan nan nan nan nan nan nan nan nan nan nan nan nan nan nan nan nan nan nan nan nan nan nan nan nan nan nan nan nan nan
nan nan nan nan nan nan nan nan nan nan nan nan nan nan nan nan nan nan nan nan nan nan nan nan nan nan nan nan nan nan nan nan nan nan nan nan nan nan
Wind_Direction
233 233 236 234 234 231 234 237 239 238 244 250 254 266 266 260 259 264 274 288 298 306 nan nan nan nan nan nan 331 337 nan nan nan nan nan nan nan nan
238 236 237 238 238 239 235 232 237 237 238 242 250 255 268 269 271 273 272 276 295 301 nan nan nan nan nan nan nan 330 334 341 nan nan nan nan nan nan
240 252 239 239 239 242 243 243 241 243 241 228 244 250 255 257 267 272 276 277 275 296 302 nan nan nan nan nan nan nan nan 333 338 337 nan nan nan nan
nan nan 235 238 242 240 242 243 246 242 244 238 239 245 254 257 257 266 264 270 276 285 295 300 nan nan nan nan nan nan nan nan 329 332 333 nan nan nan
241 nan nan 225 232 245 242 243 244 242 246 244 236 242 245 251 254 261 264 262 263 266 280 284 293 299 nan nan nan nan nan nan nan nan 323 nan nan nan
240 242 245 nan nan nan 261 240 238 245 nan 241 250 235 237 241 245 249 251 257 257 261 265 272 278 283 288 293 nan nan nan nan nan nan nan nan nan nan
nan nan 243 247 245 247 245 nan nan nan nan nan nan 222 nan 241 245 249 253 255 256 257 262 266 269 271 276 288 293 306 nan nan nan nan nan nan nan nan
nan nan nan nan 249 250 250 249 235 240 238 nan nan nan nan nan nan nan 253 253 nan 257 nan nan nan nan 270 275 287 297 304 309 315 nan nan nan nan nan
nan nan nan nan nan nan nan 243 248 252 252 240 nan nan nan nan nan nan nan nan nan nan nan nan nan nan nan nan 281 288 298 298 303 307 304 nan nan nan
nan nan nan nan nan nan nan nan 248 253 256 252 nan nan nan nan 264 nan nan nan nan nan nan nan nan nan nan nan nan 285 289 293 296 303 304 302 nan nan
nan nan nan nan nan nan nan nan nan nan nan nan nan nan nan nan 270 258 nan nan nan nan nan nan nan nan nan nan nan 277 283 288 294 298 301 302 nan nan
nan nan nan nan nan nan nan nan nan nan nan nan 249 nan 258 nan 265 271 nan nan nan nan nan nan nan nan nan nan nan nan 271 286 292 293 293 295 296 283
nan nan nan nan nan nan nan nan nan nan nan nan nan nan 253 nan nan 265 270 270 nan nan nan nan nan nan nan nan nan nan nan nan nan 281 289 295 294 289
nan nan nan nan nan nan nan nan nan nan nan nan nan nan nan nan nan nan nan 268 nan nan nan nan nan nan nan nan nan nan nan nan nan nan nan nan 294 306
nan nan nan nan nan nan nan nan nan nan nan nan nan nan nan nan nan nan nan nan nan nan nan nan nan nan nan nan nan nan nan nan nan nan nan nan nan 288
nan nan nan nan nan nan nan nan nan nan nan nan nan nan nan nan nan nan nan nan nan nan nan nan nan nan nan nan nan nan nan nan nan nan nan nan nan nan
nan nan nan nan nan nan nan nan nan nan nan nan nan nan nan nan nan nan nan nan nan nan nan nan nan nan nan nan nan nan nan nan nan nan nan nan nan nan
nan nan nan nan nan nan nan nan nan nan nan nan nan nan nan nan nan nan nan nan nan nan nan nan nan nan nan nan nan nan nan nan nan nan nan nan nan nan
nan nan nan nan nan nan nan nan nan nan nan nan nan nan nan nan nan nan nan nan nan nan nan nan nan nan nan nan nan nan nan nan nan nan nan nan nan nan
nan nan nan nan nan nan nan nan nan nan nan nan nan nan nan nan nan nan nan nan nan nan nan nan nan nan nan nan nan nan nan nan nan nan nan nan nan nan
nan nan nan nan nan nan nan nan nan nan nan nan nan nan nan nan nan nan nan nan nan nan nan nan nan nan nan nan nan nan nan nan nan nan nan nan nan nan
nan nan nan nan nan nan nan nan nan nan nan nan nan nan nan nan nan nan nan nan nan nan nan nan nan nan nan nan nan nan nan nan nan nan nan nan nan nan
nan nan nan nan nan nan nan nan nan nan nan nan nan nan nan nan nan nan nan nan nan nan nan nan nan nan nan nan nan nan nan nan nan nan nan nan nan nan